sat.trackr.live / text

‹ back to catalog

STARLINK-34645

NORAD 64766 · 2025-147M

PAYLOAD ACTIVE UNKNOWN

§ Identity

Operator
Country
US
Launch date
2025-07-08
Launch site
AFETR
Launch vehicle
Mass (kg)
RCS (m²)

Purposes: comms

External: N2YO · Heavens-Above · Gunter

§ Orbital elements

Epoch: 2026-05-25T00:31:04.340064Z

Period
94.11 min
Inclination
53.1580°
Eccentricity
0.0001211
Mean motion
15.30205423 rev/d
Perigee alt
474.4 km
Apogee alt
476.0 km
Semi-major
6,853.3 km
B*
6.5773e-4
RAAN
248.5393°
Arg perigee
93.1656°
Mean anomaly
266.9483°
Rev number
5,043

§ Raw data

STARLINK-346451 64766U 25147M   26145.02157801  .00019174  00000+0  65773-3 0  99922 64766  53.1580 248.5393 0001211  93.1656 266.9483 15.30205423 50437

JSON: /api/v1/satellites/64766 · /tle

For live sub-satellite position, see the globe view (requires WebGL).

§ Visibility from observer

Set your observer location to see the next 7 days of passes ≥ 10°. The values pass through the URL so the page stays shareable.

No JS? Fill the form by hand. The geolocation button needs JavaScript.